Weather History for Sussex, NJ

Change the Weather History Date:

Sunday, April 21, 2013

  Actual Average Record
Temperature  
Mean Temperature 42 °F -  
Max Temperature 54 °F 61 °F 88 °F (1976)
Min Temperature 30 °F 39 °F 24 °F (1961)
Degree Days  
Heating Degree Days 24    
Moisture  
Dew Point 21 °F    
Average Humidity 45    
Maximum Humidity 69    
Minimum Humidity 29    
Precipitation  
Precipitation 0.00 in - - ()
Sea Level Pressure  
Sea Level Pressure 30.53 in    
Wind  
Wind Speed 3 mph (NNE)    
Max Wind Speed 12 mph    
Max Gust Speed 18 mph    
Visibility 10 miles    
Events Rain    
Averages and records for this station are not official NWS values.
T = Trace of Precipitation, MM = Missing Value Source: NWS Daily Summary

Daily Weather History Graph

Daily Weather History Graph

Search for Another Location

Airport:

Trip Planner

Search our weather history database for the weather conditions in past years. The results will help you decide how hot, cold, wet, or windy it might be!

Date:

Astronomy

Apr. 21, 2013 Rise Set
Actual Time 6:09 AM EDT 7:45 PM EDT
Civil Twilight 5:40 AM EDT 8:14 PM EDT
Nautical Twilight 5:05 AM EDT 8:49 PM EDT
Astronomical Twilight 4:28 AM EDT 9:27 PM EDT
Moon 3:25 PM EDT (4/21) 3:33 AM EDT (4/21)
Length of Visible Light 14h 33m
Length of Day
13h 35m
Waxing Gibbous, 79% of the Moon is Illuminated
Apr 21
Waxing Gibbous
Apr 25
Full
May 2
Last Quarter
May 9
New
May 18
First Quarter

Hourly Weather History & Observations

Time (EDT) Temp. Windchill Dew Point Humidity Pressure Visibility Wind Dir Wind Speed Gust Speed Precip Events Conditions
12:53 AM 37.9 °F 35.5 °F 17.1 °F 43% 30.36 in 10.0 mi Variable 3.5 mph - N/A   Clear
1:53 AM 35.1 °F - 18.0 °F 50% 30.38 in 10.0 mi Calm Calm - N/A   Clear
2:53 AM 35.1 °F 31.0 °F 19.0 °F 52% 30.40 in 10.0 mi North 4.6 mph - N/A   Clear
3:53 AM 34.0 °F 29.8 °F 19.9 °F 56% 30.42 in 10.0 mi NNW 4.6 mph - N/A   Clear
4:53 AM 33.1 °F - 21.0 °F 61% 30.44 in 10.0 mi Calm Calm - N/A   Clear
5:53 AM 30.0 °F - 21.0 °F 69% 30.47 in 10.0 mi Calm Calm - N/A   Clear
6:53 AM 34.0 °F - 21.9 °F 61% 30.51 in 10.0 mi Calm Calm - N/A   Clear
7:53 AM 37.0 °F 31.0 °F 21.9 °F 54% 30.53 in 10.0 mi North 8.1 mph - N/A   Clear
8:53 AM 39.0 °F 32.3 °F 21.0 °F 49% 30.56 in 10.0 mi North 10.4 mph - N/A   Clear
9:53 AM 42.1 °F 35.7 °F 19.9 °F 41% 30.57 in 10.0 mi North 11.5 mph 18.4 mph 0.00 in Rain Light Rain
10:53 AM 44.1 °F 41.5 °F 21.0 °F 40% 30.58 in 10.0 mi Variable 4.6 mph - 0.00 in   Clear
11:53 AM 44.1 °F - 19.0 °F 37% 30.57 in 10.0 mi Calm Calm - 0.00 in   Clear
12:53 PM 46.9 °F - 19.0 °F 33% 30.57 in 10.0 mi Variable 6.9 mph - N/A   Clear
1:53 PM 51.1 °F - 21.9 °F 32% 30.56 in 10.0 mi Calm Calm - N/A   Clear
2:53 PM 51.1 °F - 23.0 °F 33% 30.55 in 10.0 mi ENE 6.9 mph - N/A   Clear
3:53 PM 51.1 °F - 19.9 °F 29% 30.53 in 10.0 mi Calm Calm - N/A   Clear
4:53 PM 53.1 °F - 21.9 °F 30% 30.54 in 10.0 mi ENE 6.9 mph - N/A   Clear
5:53 PM 52.0 °F - 21.0 °F 30% 30.55 in 10.0 mi Variable 5.8 mph - N/A   Clear
6:53 PM 51.1 °F - 21.0 °F 31% 30.56 in 10.0 mi NE 6.9 mph - N/A   Clear
7:53 PM 46.9 °F - 21.9 °F 37% 30.58 in 10.0 mi ENE 3.5 mph - N/A   Clear
8:53 PM 44.1 °F - 24.1 °F 45% 30.61 in 10.0 mi Calm Calm - N/A   Clear
9:53 PM 42.1 °F - 23.0 °F 47% 30.61 in 10.0 mi Calm Calm - N/A   Clear
10:53 PM 37.9 °F - 26.1 °F 62% 30.61 in 10.0 mi Calm Calm - N/A   Clear
11:53 PM 39.0 °F - 27.0 °F 62% 30.62 in 10.0 mi Calm Calm - N/A   Clear